TimeCDT,TemperatureF,Dew PointF,Humidity,Sea Level PressureIn,VisibilityMPH,Wind Direction,Wind SpeedMPH,Gust SpeedMPH,PrecipitationIn,Events,Conditions,WindDirDegrees,DateUTC
12:53 AM,84.0,55.9,38,29.97,10.0,SE,4.6,-,N/A,,Clear,140,2013-08-10 05:53:00
1:53 AM,84.0,63.0,49,29.98,10.0,Variable,4.6,-,N/A,,Clear,0,2013-08-10 06:53:00
2:53 AM,82.0,66.9,60,29.98,10.0,SSE,5.8,-,N/A,,Clear,160,2013-08-10 07:53:00
3:53 AM,80.1,68.0,67,29.99,10.0,South,4.6,-,N/A,,Clear,180,2013-08-10 08:53:00
4:53 AM,78.1,68.0,71,29.98,10.0,Calm,Calm,-,N/A,,Clear,0,2013-08-10 09:53:00
5:53 AM,77.0,68.0,74,29.99,10.0,West,3.5,-,N/A,,Clear,280,2013-08-10 10:53:00
6:53 AM,75.0,66.9,76,30.00,10.0,Calm,Calm,-,N/A,,Clear,0,2013-08-10 11:53:00
7:53 AM,78.1,68.0,71,30.01,10.0,Calm,Calm,-,N/A,,Clear,0,2013-08-10 12:53:00
8:53 AM,82.9,69.1,63,30.03,10.0,WNW,4.6,-,N/A,,Clear,290,2013-08-10 13:53:00
9:53 AM,88.0,68.0,51,30.04,10.0,WNW,5.8,-,N/A,,Clear,290,2013-08-10 14:53:00
10:53 AM,89.1,68.0,50,30.05,10.0,Calm,Calm,-,N/A,,Clear,0,2013-08-10 15:53:00
11:53 AM,91.0,68.0,47,30.05,10.0,SW,3.5,-,N/A,,Clear,230,2013-08-10 16:53:00
12:53 PM,95.0,66.9,40,30.04,10.0,East,5.8,-,N/A,,Clear,100,2013-08-10 17:53:00
1:53 PM,97.0,64.0,34,30.01,10.0,East,8.1,-,N/A,,Clear,80,2013-08-10 18:53:00
2:53 PM,99.0,62.1,30,29.99,10.0,ENE,8.1,-,N/A,,Partly Cloudy,70,2013-08-10 19:53:00
3:53 PM,99.0,63.0,30,29.96,10.0,NNE,5.8,-,N/A,,Scattered Clouds,30,2013-08-10 20:53:00
4:53 PM,98.1,61.0,29,29.94,10.0,NE,8.1,-,N/A,,Partly Cloudy,50,2013-08-10 21:53:00
5:53 PM,99.0,60.1,28,29.93,10.0,ENE,6.9,-,N/A,,Partly Cloudy,70,2013-08-10 22:53:00
6:53 PM,98.1,61.0,29,29.94,10.0,East,4.6,-,N/A,,Clear,90,2013-08-10 23:53:00
7:53 PM,93.9,63.0,36,29.94,10.0,ESE,3.5,-,N/A,,Scattered Clouds,120,2013-08-11 00:53:00
8:37 PM,86.0,66.9,53,30.06,10.0,ESE,11.5,18.4,N/A,Thunderstorm,Scattered Clouds,120,2013-08-11 01:37:00
8:53 PM,82.9,68.0,60,30.01,10.0,SE,15.0,26.5,N/A,,Partly Cloudy,130,2013-08-11 01:53:00
9:53 PM,82.9,68.0,60,30.01,10.0,South,5.8,-,N/A,,Clear,180,2013-08-11 02:53:00
10:53 PM,82.9,69.1,63,30.03,10.0,South,3.5,-,N/A,,Clear,170,2013-08-11 03:53:00
11:53 PM,81.0,69.1,67,30.04,10.0,NE,3.5,-,N/A,,Scattered Clouds,50,2013-08-11 04:53:00